User: anonymous   Login
Location: Homewood
(41.1836°S, 175.9581°E)
Time: 18:26:01
(UTC+00:00)
Language:

NOAA 12 - Orbit

View from above orbital plane
View from above orbital plane
View from above satellite
View from above satellite

Ground track
Ground track

The orbit data is extracted from the following two-line orbital elements,

1 21263U 91032A   24171.94195366  .00000143  00000-0  77289-4 0  9992
2 21263  98.5572 162.9953 0013665 359.0912   1.0241 14.26322704721275
Epoch (UTC): 19 June 2024 22:36:24
Eccentricity: 0.0013665
inclination: 98.5572°
perigee height: 794 km
apogee height: 814 km
right ascension of ascending node: 162.9953°
argument of perigee: 359.0912°
revolutions per day: 14.26322704
mean anomaly at epoch: 1.0241°
orbit number at epoch: 72127

The dashed part of the orbit path shows where the satellite is in the earth's shadow,  

DLR